Reflectivity
-20 -20 -20 -20 -20 -20 -20 -20 -20 -20 -20 -20 -20 -20 -20 -20 -20 -20 -20 -20 -20 -20 -20 -5 -6 7 2 -3 -20 -20 -16 -20 -20 -17 -11 12 11 8 -20 -20 -10 2 -8
-20 -20 -20 -20 -20 -20 -20 -20 -20 -20 -20 -20 -20 -20 -20 -20 -20 -20 -20 -20 -20 -20 -17 -2 -14 14 -20 -4 -20 -20 -20 -20 -20 1 -5 14 9 8 7 11 6 -7 -4
-20 -20 -20 -20 -20 -20 -19 -13 -3 -20 -20 -20 -19 -20 -20 -20 -20 -20 -18 -20 -20 6 8 6 16 18 -7 -20 -20 -20 -20 -20 -20 -16 2 4 -17 17 16 12 11 6 7
-20 -20 -20 -20 -20 -20 -12 -20 -7 -10 2 -20 -15 -20 -20 -20 -20 -20 -20 -20 -5 7 7 19 19 4 -20 -20 -20 -20 -20 -20 -20 -12 -5 8 15 15 15 17 17 18 15
-20 -20 -20 -20 -20 -20 -20 -20 -20 -20 -20 -14 -20 1 -20 -20 -20 -20 -20 -20 -20 11 4 12 -2 -20 -20 -20 -20 -20 -20 -20 -20 -20 -2 11 11 11 9 -20 -20 -20 -10
-20 -20 -20 -20 -20 -20 -20 -20 -20 -19 -20 -20 -20 -20 -20 -20 -20 -20 -20 -20 -20 11 8 5 -20 -20 -20 -20 -20 -16 7 -2 -20 -20 15 4 -7 2 8 4 -3 -19 7
-20 -20 -20 -20 -20 -20 -20 -20 -20 -20 -20 -10 -17 6 -20 -20 -20 -20 -20 -20 -20 10 4 -3 -20 -20 -20 -20 -10 -14 -20 -15 -20 -20 -20 -8 -18 19 17 14 5 -2 16
-20 -20 -20 -20 10 6 -20 14 -20 -7 13 17 24 4 -5 5 10 3 -20 -11 -20 5 -6 -20 -20 -20 -20 -16 -14 -17 -16 -20 -20 -20 -20 -20 3 19 -8 4 -2 -16 -20
-20 -20 -10 -20 -10 15 -1 16 18 10 32 42 41 24 11 10 -19 -13 -20 -12 -20 7 -13 -15 -20 -20 -10 -17 -17 -18 -20 -20 -20 -20 -20 -20 19 0 -1 -14 -7 -20 -20
-20 -20 -20 -20 -20 -20 -20 2 3 -4 15 44 43 41 33 40 -20 -1 -19 19 6 17 5 -20 -20 -20 -17 -20 -20 -20 -20 -20 -20 -20 -20 -20 -3 -13 -2 -5 -9 -20 -20
-20 -20 -20 -20 -20 -19 -19 -8 26 27 32 39 39 45 40 30 -11 -15 10 14 -19 -20 -9 -20 -20 8 3 -7 -19 -20 -20 -20 -20 -20 -20 -7 1 1 -3 -2 -5 -5 -20
-20 -20 -20 -20 -13 -20 -13 1 -2 24 30 34 38 42 35 11 -13 -20 -2 -8 -20 -20 -20 -20 -19 7 -15 -20 -20 -20 -20 -20 -20 -20 -20 -3 -20 -7 2 -5 -4 -20 -20
-20 -20 -20 -18 -18 -2 24 -18 -19 -20 2 18 31 33 33 13 -18 -20 -12 -20 -20 -20 -20 -20 9 16 -20 -20 -20 -20 -20 -20 -20 -20 -20 -5 -1 -15 -1 -0 -5 -20 -20
-20 -18 -20 1 -17 3 -20 22 -20 -20 -20 -8 26 34 26 6 -20 -20 -17 -16 13 0 -20 -8 -2 -19 -20 -20 -20 -20 -20 -20 -20 -20 -20 -20 -5 -4 -3 -20 -20 -20 -20
-20 2 -20 7 -15 -2 -20 -20 -16 7 -8 21 39 36 26 13 -4 -20 15 3 24 7 -19 -20 -20 -18 -20 -20 -20 -20 -20 -20 -20 -20 -20 -20 -20 -7 -10 -20 -20 -20 -20
-20 -20 -20 -13 1 4 -20 -20 -20 -15 -1 12 22 30 25 17 -20 -3 -17 -13 -11 -20 -20 -20 -20 12 -20 -20 -20 -20 -20 -20 -20 -20 -20 -20 -20 -20 -20 -20 -20 -20 -20
-20 -19 -1 15 6 -20 -13 -12 -15 -20 -4 -7 -3 -18 -19 13 -15 11 -3 -20 -17 -20 -20 -20 -20 -16 -8 -20 -20 -20 -20 -20 -20 -20 -20 -20 -20 -20 -20 -20 -20 -20 -20
-20 -20 7 10 13 -16 8 -20 -2 -20 -20 -8 10 -18 -20 -10 -1 -10 -11 -14 -19 -20 -20 -20 -20 -20 7 -20 -20 -20 -20 -20 -20 -20 -20 -20 -20 -20 -20 -20 -20 -20 -20
-20 -20 -16 11 13 -11 7 15 -11 -13 -20 3 -16 13 13 -2 3 -9 6 -19 -20 -20 -20 -20 -20 7 11 -20 -20 -20 -20 -20 -20 -20 -20 -20 -20 -20 -20 -20 -20 -20 -20
-20 -20 -20 10 -11 16 -20 -20 -20 2 9 20 -4 7 -3 -15 3 -18 -1 -20 -20 -20 -20 -10 -6 17 -5 -20 -20 -20 -20 -20 -20 -20 -20 -20 -20 -20 -20 -20 -20 -20 -20
-20 -20 -20 -6 9 4 2 2 -2 4 25 20 19 23 18 -17 -14 -17 7 3 -20 15 -20 -20 -4 1 -5 -20 -20 -20 -20 -20 -20 -20 -20 -20 -20 -20 -20 -20 -20 -20 -20
-20 -20 -20 6 -2 -19 5 2 2 -18 -12 -7 6 28 10 11 -20 -20 -11 8 -9 10 11 -14 -20 4 26 12 -19 -12 -20 -20 -20 -20 -20 -20 -20 -20 -20 -20 -20 -20 -20
-20 -20 -20 -20 -1 -4 -6 -16 3 1 15 21 6 26 14 -10 -7 -10 -9 22 20 -10 28 18 -2 -19 11 24 16 9 -20 -20 -20 -20 -20 -20 -20 -20 -20 -20 -20 -20 -20
-20 -20 -20 -0 2 -20 -4 -19 -11 -3 2 7 10 11 17 20 -17 -11 20 14 27 25 -15 10 -19 -18 26 13 9 -20 -20 -20 -20 -20 -20 -20 -20 -20 -20 -20 -20 -20 -20
-20 -20 -20 -16 2 -20 -20 11 14 -20 -20 -20 -20 4 8 -18 -18 -3 -10 3 0 -9 -19 -20 -20 -17 19 12 -20 -20 -20 -20 -20 -20 -20 -20 -20 -20 -20 -20 -20 -20 -20
-20 -20 -20 -20 -5 -2 -20 -20 -20 -20 -20 -20 -20 -10 -20 -20 -15 7 1 -20 -20 -20 -20 -20 -20 -20 19 -19 -20 -20 -20 -20 -20 -20 -20 -20 -20 -20 -20 -20 -20 -20 -20
Wind_Speed
5 7 12 15 18 17 15 13 12 14 17 18 20 20 21 22 20 21 22 22 22 22 22 22 21 21 23 25 26 25 23 23 23 23 24 24 25 25 24 23 21 18 23
12 10 11 11 15 18 15 15 14 14 16 18 20 20 20 21 20 20 21 20 21 22 23 22 21 22 24 25 24 25 24 23 23 24 23 24 24 25 23 23 21 20 23
11 10 11 14 14 14 17 14 15 16 17 17 17 19 20 20 20 19 19 21 21 21 24 23 23 24 26 23 23 24 24 23 23 22 21 12 15 23 24 23 22 23 23
11 11 10 14 14 15 17 16 15 17 18 18 18 18 21 20 21 19 19 21 20 22 23 22 24 24 24 23 21 22 23 22 21 20 12 11 13 22 23 23 23 23 23
9 10 11 14 15 17 17 17 16 18 19 20 20 19 19 20 23 22 18 20 21 21 24 22 24 22 19 18 18 19 19 20 23 18 12 11 10 18 22 22 21 22 21
2 5 14 15 17 17 19 20 19 17 20 19 22 22 19 21 23 22 21 19 19 20 23 22 22 17 16 15 14 14 13 16 18 14 12 15 11 20 20 21 21 21 21
4 7 7 14 16 19 19 19 20 20 21 22 23 22 22 22 21 23 21 19 19 21 20 21 18 15 15 15 16 11 10 22 13 12 12 11 12 19 20 21 22 21 21
6 7 7 5 11 14 19 18 16 18 21 24 23 24 25 24 21 24 20 20 19 19 19 16 14 13 13 16 13 10 22 23 16 13 11 9 17 19 20 20 21 20 21
6 6 5 5 4 5 3 8 16 10 18 7 5 21 24 24 22 23 21 21 21 18 17 14 13 12 13 12 10 13 25 23 14 11 10 8 18 19 20 20 20 20 20
7 6 5 2 4 6 8 22 21 16 16 8 5 17 23 23 23 22 22 22 21 18 15 15 14 11 11 10 12 20 23 22 14 11 6 8 18 19 20 19 20 19 19
4 7 4 4 5 9 11 15 19 18 16 15 11 11 12 11 15 18 20 21 21 18 15 13 12 10 10 8 13 12 11 10 12 9 5 16 18 18 18 18 18 18 18
6 5 5 4 6 9 9 10 11 13 7 9 14 14 8 11 12 14 19 20 19 17 16 14 11 9 6 3 3 8 9 10 10 10 6 16 17 17 18 17 17 16 16
6 5 6 6 7 10 8 6 5 5 7 4 14 17 10 9 11 9 9 8 9 13 6 8 7 2 5 2 3 6 10 10 7 7 12 15 17 17 17 17 16 16 15
8 8 7 6 8 8 7 6 6 5 3 7 10 10 9 7 9 9 7 9 8 5 7 4 4 3 4 3 4 6 10 9 7 6 10 15 16 17 16 16 16 15 14
7 8 7 6 7 9 8 7 7 6 6 9 12 9 7 7 10 10 8 8 7 6 6 6 4 4 4 4 4 10 11 10 11 7 5 14 14 15 15 15 14 14 13
9 6 5 6 6 8 8 10 6 5 6 8 13 14 12 8 8 10 10 9 6 7 6 7 5 4 5 4 3 9 11 11 11 10 7 7 13 14 14 14 14 14 13
8 8 5 7 8 9 9 9 6 6 7 6 7 13 15 10 10 11 10 10 8 7 10 5 5 6 4 4 4 7 10 10 10 11 9 6 8 12 13 13 14 14 13
11 9 7 6 9 7 7 7 6 8 7 6 6 7 11 12 10 10 9 10 9 8 8 7 6 7 5 5 3 4 8 9 10 10 9 8 7 6 9 13 14 14 15
12 12 8 7 7 8 8 7 8 10 8 8 7 8 9 10 10 10 9 9 10 8 6 7 5 7 6 4 4 3 4 7 10 8 10 9 9 8 6 11 14 14 16
11 11 9 6 8 8 6 4 5 7 8 7 9 9 12 9 6 8 8 8 7 8 6 7 8 3 6 7 7 4 3 5 7 8 10 8 9 9 9 10 9 9 15
11 12 11 9 9 7 6 5 4 5 6 9 9 13 12 8 8 7 8 7 5 8 9 11 6 6 3 5 4 3 0 4 6 5 7 9 10 11 10 9 7 7 8
13 11 11 10 10 7 6 5 4 6 7 9 10 10 11 7 9 6 8 7 3 7 3 6 6 3 3 5 4 4 2 2 3 5 3 7 11 10 11 12 12 12 10
14 13 12 12 11 8 7 6 6 6 7 6 10 9 9 9 9 8 11 11 5 7 9 6 6 7 4 2 5 6 3 5 1 2 7 4 6 5 8 12 12 13 13
14 12 14 12 12 10 9 9 11 9 10 8 9 7 8 8 7 9 11 10 10 5 6 5 5 5 5 5 1 3 3 5 4 1 1 4 6 7 7 5 10 12 13
16 13 12 13 13 12 11 11 9 11 8 8 6 5 5 6 7 7 7 7 6 4 5 7 7 9 5 4 4 3 2 1 2 3 3 3 2 5 6 8 9 9 13
15 14 12 14 13 13 12 13 13 14 11 9 6 6 4 7 7 8 8 7 6 6 6 5 7 9 8 5 4 4 5 4 4 4 2 4 6 5 8 7 8 9 7
Wind_Direction
112 137 152 151 145 139 137 131 126 123 122 120 118 117 117 114 112 115 116 116 115 116 120 116 112 113 109 106 103 101 100 99 97 95 94 93 92 89 84 81 78 81 83
141 143 151 159 152 143 141 138 133 130 129 126 126 122 121 118 117 116 116 115 117 122 124 123 123 121 115 109 105 104 102 96 92 89 91 93 93 88 85 81 80 82 81
142 145 152 159 160 149 142 140 139 140 137 133 129 127 123 119 118 118 117 118 122 124 124 123 122 122 118 114 112 109 104 98 92 89 89 87 90 94 94 91 90 89 85
150 155 150 154 154 148 147 149 150 148 145 139 136 134 129 128 125 124 125 123 125 124 121 125 124 123 122 119 114 113 109 105 100 93 87 93 100 99 98 94 94 92 92
139 160 150 147 155 155 154 155 158 157 154 147 147 142 137 137 132 128 129 129 129 127 126 129 128 128 122 115 118 117 109 102 97 93 89 94 92 99 98 99 98 100 97
104 140 160 156 159 159 160 165 165 166 162 156 149 146 143 143 136 131 133 132 133 132 131 131 133 130 119 120 118 96 91 104 93 90 88 91 91 99 103 101 105 105 105
148 105 160 165 157 166 169 173 170 172 171 162 155 148 147 144 142 131 133 134 134 131 131 137 135 127 119 106 90 88 96 107 100 99 89 92 101 110 109 109 110 106 107
106 114 143 171 176 177 183 179 177 174 182 170 161 152 149 146 144 134 138 135 129 126 128 137 135 121 114 101 97 86 105 109 104 100 99 107 111 112 112 110 108 109 108
112 109 129 159 191 61 29 118 89 97 62 21 101 153 149 141 142 133 131 127 123 125 129 132 126 113 107 98 106 84 109 112 109 107 107 114 121 117 116 114 112 112 111
143 95 96 134 169 121 111 110 110 115 109 95 324 290 144 148 133 125 125 124 124 125 131 137 118 120 109 120 91 91 117 113 111 106 101 120 125 126 121 120 118 117 116
100 117 115 163 146 121 131 127 123 118 125 132 205 269 165 140 123 126 123 127 131 131 129 124 119 124 122 111 83 79 110 113 118 116 115 127 130 128 124 121 120 122 120
134 130 124 119 109 123 138 143 143 143 148 162 178 196 199 134 127 126 124 129 126 123 129 125 129 133 102 93 105 90 116 123 119 125 128 133 134 131 128 126 125 122 122
130 132 135 122 113 118 138 144 139 152 163 161 164 170 152 137 127 124 122 126 122 127 137 126 126 137 122 158 123 90 127 123 126 130 137 136 139 137 137 136 131 130 127
139 141 143 128 123 125 124 137 156 156 144 149 140 133 136 134 126 124 127 138 142 139 126 142 138 154 164 174 170 116 134 135 134 129 139 143 143 145 145 144 141 137 134
101 123 141 147 141 132 133 137 156 160 154 148 115 130 149 138 139 134 143 143 130 141 147 157 153 164 167 205 221 126 137 132 136 136 138 142 146 151 151 150 150 147 144
120 109 138 170 147 138 138 146 154 136 136 149 151 162 153 146 144 142 147 142 145 160 158 161 167 174 177 185 202 125 139 138 141 144 138 146 152 155 160 158 162 161 160
126 135 138 165 154 139 138 143 145 135 135 138 154 153 150 133 145 147 155 153 157 172 163 168 181 178 147 181 155 133 142 139 147 147 146 151 162 164 164 172 174 177 175
134 139 149 150 145 144 135 131 142 146 150 148 154 163 153 148 152 157 164 161 161 179 169 177 179 158 155 157 145 135 141 146 152 160 159 164 168 170 180 179 184 188 191
142 140 140 153 142 140 142 149 151 158 167 166 162 165 156 160 170 165 169 168 168 179 171 174 175 146 154 147 151 149 137 145 155 161 170 175 179 177 178 196 191 191 196
145 140 142 151 147 148 152 153 156 171 177 179 175 173 165 172 182 169 170 167 170 178 170 162 159 147 157 158 161 156 182 149 164 169 176 181 186 186 190 196 198 204 197
137 143 152 160 144 143 145 163 187 202 155 169 177 175 166 176 168 152 156 156 150 164 172 169 145 146 146 154 110 59 3 192 188 187 170 184 186 195 192 200 199 202 206
152 150 151 151 151 156 158 162 168 163 173 163 163 174 176 183 158 149 135 135 146 138 164 158 126 119 145 153 142 125 161 324 267 224 208 180 191 195 196 201 199 201 203
158 161 161 159 155 160 149 127 128 125 127 148 157 175 190 168 155 149 133 143 187 149 175 164 139 139 134 241 155 148 127 207 154 218 226 212 199 188 190 204 201 202 203
163 156 155 160 154 163 155 145 146 148 152 158 160 178 173 166 162 141 154 165 175 183 147 155 147 124 144 201 168 221 143 148 169 205 298 220 202 210 210 196 198 204 203
153 157 153 160 161 167 170 158 159 155 158 151 152 161 165 175 174 169 153 171 167 155 164 166 163 184 174 161 183 175 168 159 159 133 231 258 201 219 214 204 200 202 211
152 152 156 161 170 171 176 169 174 168 165 169 159 172 178 180 189 184 167 168 176 177 178 187 181 194 181 187 185 179 176 171 193 160 173 214 199 227 213 210 215 219 215